Starkville, MS

5:18 AM CST on February 26, 2017 (GMT -0600)
Bryan

Weather History for KSTF - June, 2013

Change the Weather History Date:

Saturday, June 29, 2013

  Actual Average Record
Temperature  
Mean Temperature 78 °F -  
Max Temperature 89 °F 90 °F 98 °F (2012)
Min Temperature 64 °F 69 °F 62 °F (2015)
Cooling Degree Days 12    
Growing Degree Days 28 (Base 50)    
Moisture  
Dew Point 65 °F    
Average Humidity 70    
Maximum Humidity 100    
Minimum Humidity 31    
Precipitation  
Precipitation 0.01 in - - ()
Sea Level Pressure  
Sea Level Pressure 29.74 in    
Wind  
Wind Speed 1 mph (WNW)    
Max Wind Speed 9 mph    
Max Gust Speed -    
Visibility 9 miles    
Events      
Averages and records for this station are not official NWS values.
T = Trace of Precipitation, MM = Missing Value Source: NWS Daily Summary

Daily Weather History Graph

Daily Weather History Graph

Search for Another Location

Airport or City:

Trip Planner

Search our weather history database for the weather conditions in past years. The results will help you decide how hot, cold, wet, or windy it might be!

Date:

Astronomy

Jun. 29, 2013 Rise Set
Actual Time 5:48 AM CDT 8:09 PM CDT
Civil Twilight 5:19 AM CDT 8:38 PM CDT
Nautical Twilight 4:44 AM CDT 9:13 PM CDT
Astronomical Twilight 4:05 AM CDT 9:52 PM CDT
Moon No Moon Rise 12:37 PM CDT (6/29)
Length of Visible Light 15h 18m
Length of Day
14h 20m
Waning Gibbous, 55% of the Moon is Illuminated
Jun 29
Waning Gibbous
Jun 29
Last Quarter
Jul 8
New
Jul 15
First Quarter
Jul 22
Full

Hourly Weather History & Observations

Time (CDT) Temp. Heat Index Dew Point Humidity Pressure Visibility Wind Dir Wind Speed Gust Speed Precip Events Conditions
12:15 AM 71.6 °F - 69.8 °F 94% 29.76 in 4.0 mi Calm Calm - N/A   Scattered Clouds
12:35 AM 71.6 °F - 69.8 °F 94% 29.76 in 5.0 mi Calm Calm - N/A   Scattered Clouds
12:55 AM 71.6 °F - 69.8 °F 94% 29.75 in 5.0 mi Calm Calm - N/A   Clear
1:15 AM 71.6 °F - 69.8 °F 94% 29.75 in 5.0 mi Calm Calm - N/A   Clear
1:35 AM 71.6 °F - 69.8 °F 94% 29.75 in 5.0 mi Calm Calm - N/A   Clear
1:55 AM 71.6 °F - 69.8 °F 94% 29.75 in 5.0 mi Calm Calm - N/A   Clear
2:15 AM 69.8 °F - 69.8 °F 100% 29.75 in 4.0 mi Calm Calm - N/A   Clear
2:35 AM 69.8 °F - 69.8 °F 100% 29.75 in 3.0 mi Calm Calm - 0.01 in   Mist
2:55 AM 69.8 °F - 69.8 °F 100% 29.74 in 1.5 mi Calm Calm - 0.01 in   Mist
3:15 AM 69.8 °F - 69.8 °F 100% 29.75 in 4.0 mi Calm Calm - N/A   Clear
3:35 AM 69.8 °F - 69.8 °F 100% 29.75 in 7.0 mi Calm Calm - N/A   Scattered Clouds
3:55 AM 69.8 °F - 68.0 °F 94% 29.74 in 7.0 mi Calm Calm - N/A   Scattered Clouds
4:15 AM 69.8 °F - 68.0 °F 94% 29.75 in 7.0 mi Calm Calm - N/A   Scattered Clouds
4:35 AM 68.0 °F - 68.0 °F 100% 29.75 in 4.0 mi Calm Calm - N/A   Clear
4:55 AM 68.0 °F - 68.0 °F 100% 29.75 in 5.0 mi Calm Calm - N/A   Clear
5:15 AM 68.0 °F - 68.0 °F 100% 29.75 in 5.0 mi Calm Calm - N/A   Clear
5:35 AM 68.0 °F - 68.0 °F 100% 29.75 in 10.0 mi Calm Calm - N/A   Clear
5:55 AM 68.0 °F - 68.0 °F 100% 29.75 in 10.0 mi Calm Calm - N/A   Clear
6:15 AM 69.8 °F - 68.0 °F 94% 29.76 in 7.0 mi Calm Calm - N/A   Clear
6:35 AM 69.8 °F - 68.0 °F 94% 29.76 in 7.0 mi Calm Calm - N/A   Clear
6:55 AM 69.8 °F - 68.0 °F 94% 29.76 in 10.0 mi Calm Calm - N/A   Scattered Clouds
7:15 AM 71.6 °F - 69.8 °F 94% 29.76 in 10.0 mi Calm Calm - N/A   Clear
7:35 AM 71.6 °F - 69.8 °F 94% 29.76 in 10.0 mi Calm Calm - N/A   Clear
7:55 AM 73.4 °F - 69.8 °F 88% 29.76 in 10.0 mi Calm Calm - N/A   Clear
8:15 AM 77.0 °F - 69.8 °F 78% 29.77 in 10.0 mi Calm Calm - N/A   Clear
8:35 AM 77.0 °F - 69.8 °F 78% 29.77 in 10.0 mi NW 3.5 mph - N/A   Clear
8:55 AM 78.8 °F - 69.8 °F 74% 29.78 in 10.0 mi WNW 3.5 mph - N/A   Scattered Clouds
9:15 AM 78.8 °F - 69.8 °F 74% 29.77 in 10.0 mi Calm Calm - N/A   Scattered Clouds
9:35 AM 80.6 °F 83.2 °F 68.0 °F 65% 29.76 in 10.0 mi Calm Calm - N/A   Scattered Clouds
9:55 AM 80.6 °F 83.2 °F 68.0 °F 65% 29.76 in 10.0 mi Calm Calm - N/A   Clear
10:15 AM 82.4 °F 85.4 °F 68.0 °F 62% 29.76 in 10.0 mi Calm Calm - N/A   Clear
10:35 AM 84.2 °F 85.6 °F 64.4 °F 51% 29.76 in 10.0 mi North 3.5 mph - N/A   Clear
10:55 AM 86.0 °F 85.4 °F 59.0 °F 40% 29.77 in 10.0 mi NNW 3.5 mph - N/A   Scattered Clouds
11:15 AM 86.0 °F 86.1 °F 60.8 °F 43% 29.76 in 10.0 mi Calm Calm - N/A   Scattered Clouds
11:35 AM 86.0 °F 86.1 °F 60.8 °F 43% 29.76 in 10.0 mi NNW 3.5 mph - N/A   Clear
11:55 AM 87.8 °F 87.6 °F 60.8 °F 40% 29.76 in 10.0 mi North 5.8 mph - N/A   Scattered Clouds
12:15 PM 86.0 °F 86.1 °F 60.8 °F 43% 29.76 in 10.0 mi WNW 3.5 mph - N/A   Scattered Clouds
12:35 PM 86.0 °F 86.6 °F 62.6 °F 45% 29.76 in 10.0 mi NW 3.5 mph - N/A   Scattered Clouds
12:55 PM 87.8 °F 87.1 °F 59.0 °F 38% 29.75 in 10.0 mi WSW 8.1 mph - N/A   Clear
1:15 PM 87.8 °F 87.1 °F 59.0 °F 38% 29.75 in 10.0 mi NNW 4.6 mph - N/A   Scattered Clouds
1:35 PM 87.8 °F 87.1 °F 59.0 °F 38% 29.74 in 10.0 mi West 5.8 mph - N/A   Scattered Clouds
1:55 PM 87.8 °F 87.1 °F 59.0 °F 38% 29.74 in 10.0 mi WNW 8.1 mph - N/A   Scattered Clouds
2:15 PM 87.8 °F 87.1 °F 59.0 °F 38% 29.74 in 10.0 mi NW 8.1 mph - N/A   Clear
2:35 PM 87.8 °F 86.5 °F 57.2 °F 35% 29.74 in 10.0 mi West 6.9 mph - N/A   Clear
2:55 PM 89.6 °F 88.9 °F 59.0 °F 36% 29.73 in 10.0 mi West 6.9 mph - N/A   Clear
3:15 PM 89.6 °F 88.1 °F 57.2 °F 33% 29.72 in 10.0 mi WNW 6.9 mph - N/A   Clear
3:35 PM 89.6 °F 88.9 °F 59.0 °F 36% 29.72 in 10.0 mi WNW 5.8 mph - N/A   Scattered Clouds
3:55 PM 89.6 °F 88.1 °F 57.2 °F 33% 29.71 in 10.0 mi WNW 6.9 mph - N/A   Scattered Clouds
4:15 PM 87.8 °F 87.1 °F 59.0 °F 38% 29.71 in 10.0 mi West 5.8 mph - N/A   Clear
4:35 PM 89.6 °F 87.7 °F 55.4 °F 31% 29.71 in 10.0 mi WNW 9.2 mph - N/A   Scattered Clouds
4:55 PM 87.8 °F 87.1 °F 59.0 °F 38% 29.70 in 10.0 mi NNW 4.6 mph - N/A   Scattered Clouds
5:15 PM 87.8 °F 86.5 °F 57.2 °F 35% 29.70 in 10.0 mi WNW 6.9 mph - N/A   Clear
5:35 PM 87.8 °F 87.1 °F 59.0 °F 38% 29.69 in 10.0 mi NW 6.9 mph - N/A   Clear
5:55 PM 87.8 °F 87.1 °F 59.0 °F 38% 29.69 in 10.0 mi WNW 4.6 mph - N/A   Clear
6:15 PM 87.8 °F 87.1 °F 59.0 °F 38% 29.70 in 10.0 mi WNW 5.8 mph - N/A   Clear
6:35 PM 86.0 °F 85.4 °F 59.0 °F 40% 29.70 in 10.0 mi NW 3.5 mph - N/A   Clear
6:55 PM 86.0 °F 86.1 °F 60.8 °F 43% 29.70 in 10.0 mi WNW 3.5 mph - N/A   Clear
7:15 PM 84.2 °F 84.4 °F 60.8 °F 45% 29.70 in 10.0 mi Calm Calm - N/A   Clear
7:35 PM 82.4 °F 83.4 °F 62.6 °F 51% 29.71 in 10.0 mi Calm Calm - N/A   Clear
7:55 PM 77.0 °F - 68.0 °F 74% 29.71 in 10.0 mi Calm Calm - N/A   Clear
8:15 PM 73.4 °F - 66.2 °F 78% 29.71 in 10.0 mi Calm Calm - N/A   Clear
8:35 PM 73.4 °F - 68.0 °F 83% 29.71 in 10.0 mi Calm Calm - N/A   Clear
8:55 PM 71.6 °F - 66.2 °F 83% 29.71 in 10.0 mi Calm Calm - N/A   Scattered Clouds
9:15 PM 69.8 °F - 66.2 °F 88% 29.72 in 10.0 mi Calm Calm - N/A   Clear
9:35 PM 69.8 °F - 64.4 °F 83% 29.73 in 10.0 mi Calm Calm - N/A   Clear
9:55 PM 69.8 °F - 64.4 °F 83% 29.74 in 10.0 mi Calm Calm - N/A   Clear
10:15 PM 68.0 °F - 64.4 °F 88% 29.75 in 10.0 mi Calm Calm - N/A   Clear
10:35 PM 68.0 °F - 64.4 °F 88% 29.75 in 10.0 mi Calm Calm - N/A   Clear
10:55 PM 68.0 °F - 64.4 °F 88% 29.75 in 10.0 mi Calm Calm - N/A   Clear
11:15 PM 68.0 °F - 64.4 °F 88% 29.74 in 10.0 mi Calm Calm - N/A   Clear
11:35 PM 66.2 °F - 64.4 °F 94% 29.75 in 10.0 mi Calm Calm - N/A   Clear
11:55 PM 64.4 °F - 64.4 °F 100% 29.74 in 10.0 mi Calm Calm - N/A   Clear